sat.trackr.live / text

‹ back to catalog

STARLINK-31115

NORAD 58729 · 2024-005B

PAYLOAD ACTIVE UNKNOWN

§ Identity

Operator
Country
US
Launch date
2024-01-07
Launch site
AFETR
Launch vehicle
Mass (kg)
RCS (m²)

Purposes: comms

External: N2YO · Heavens-Above · Gunter

§ Orbital elements

Epoch: 2026-05-25T00:38:26.538720Z

Period
94.27 min
Inclination
43.0034°
Eccentricity
0.0001288
Mean motion
15.27590186 rev/d
Perigee alt
482.1 km
Apogee alt
483.9 km
Semi-major
6,861.2 km
B*
5.8936e-5
RAAN
149.0423°
Arg perigee
271.1066°
Mean anomaly
88.9638°
Rev number
13,210

§ Raw data

STARLINK-311151 58729U 24005B   26145.02669605  .00001360  00000+0  58936-4 0  99982 58729  43.0034 149.0423 0001288 271.1066  88.9638 15.27590186132105

JSON: /api/v1/satellites/58729 · /tle

For live sub-satellite position, see the globe view (requires WebGL).

§ Visibility from observer

Set your observer location to see the next 7 days of passes ≥ 10°. The values pass through the URL so the page stays shareable.

No JS? Fill the form by hand. The geolocation button needs JavaScript.